When you browse on this site, cookies collect data to enhance your experience and personalize the content and advertising you see.
Visit our Privacy Policy to learn more. By continuing to use the site, you agree to this use of cookies and data.
  • In Portugal
  • List of Countries
  • For 7 days
  • Water Temperature
  • Satellite Maps
  • Weather Map
  • Weather Widgets
  • user-avatar
    Login

    Hourly Weather Kiustendil

    Today, 19 November, Monday

    Time Temperature Precipitation Wind Pressure Humidity
    00:00 -3°C° 0.6 mm 1 mps 618 mmHg 89%
    01:00 -3°C° 0 mm 1 mps 618 mmHg 87%
    02:00 -3°C° 0.1 mm 1 mps 618 mmHg 87%
    03:00 -3°C° 0.1 mm 1 mps 617 mmHg 88%
    04:00 -4°C° 0.1 mm 1 mps 617 mmHg 88%
    05:00 -4°C° 0 mm 1 mps 617 mmHg 88%
    06:00 -4°C° 0 mm 1 mps 617 mmHg 88%
    07:00 -6°C° 0 mm 1 mps 618 mmHg 86%
    08:00 -3°C° 0 mm 1 mps 618 mmHg 81%
    09:00 -1°C° 0 mm 1 mps 619 mmHg 77%
    10:00 0°C° 0 mm 1 mps 620 mmHg 72%
    11:00 +1°C° 0 mm 1 mps 620 mmHg 69%
    12:00 +2°C° 0 mm 1 mps 621 mmHg 65%
    13:00 +3°C° 0 mm 1 mps 621 mmHg 62%
    14:00 +2°C° 0 mm 1 mps 621 mmHg 66%
    15:00 +1°C° 0 mm 1 mps 621 mmHg 69%
    16:00 0°C° 0 mm 1 mps 620 mmHg 73%
    17:00 0°C° 0 mm 1 mps 621 mmHg 73%
    18:00 -1°C° 0 mm 1 mps 621 mmHg 74%
    19:00 -1°C° 0 mm 1 mps 621 mmHg 74%
    20:00 -1°C° 0 mm 1 mps 621 mmHg 74%
    21:00 -1°C° 0 mm 1 mps 622 mmHg 73%
    22:00 -1°C° 0 mm 1 mps 622 mmHg 73%
    23:00 -1°C° 0 mm 1 mps 622 mmHg 74%

    Tomorrow, 20 November, Tuesday

    Time Temperature Precipitation Wind Pressure Humidity
    00:00 -3°C° 0 mm 2 mps 622 mmHg 75%
    01:00 -2°C° 0 mm 2 mps 622 mmHg 76%
    02:00 -2°C° 0.1 mm 2 mps 622 mmHg 78%
    03:00 -2°C° 0.1 mm 2 mps 622 mmHg 80%
    04:00 -2°C° 0.1 mm 2 mps 622 mmHg 82%
    05:00 -2°C° 0.3 mm 2 mps 622 mmHg 84%
    06:00 -2°C° 0.3 mm 2 mps 623 mmHg 86%
    07:00 -1°C° 0.3 mm 2 mps 623 mmHg 87%
    08:00 0°C° 0.2 mm 3 mps 623 mmHg 85%
    09:00 +1°C° 0.2 mm 3 mps 624 mmHg 83%
    10:00 +2°C° 0.2 mm 3 mps 624 mmHg 81%
    11:00 +3°C° 0.2 mm 3 mps 624 mmHg 81%
    12:00 +3°C° 0.2 mm 4 mps 624 mmHg 81%
    13:00 +4°C° 0.2 mm 4 mps 624 mmHg 81%
    14:00 +3°C° 0.3 mm 3 mps 623 mmHg 84%
    15:00 +2°C° 0.3 mm 3 mps 623 mmHg 87%
    16:00 +3°C° 0.3 mm 2 mps 623 mmHg 90%
    17:00 +3°C° 0.2 mm 2 mps 623 mmHg 91%
    18:00 +2°C° 0.2 mm 2 mps 623 mmHg 92%
    19:00 +2°C° 0.2 mm 2 mps 622 mmHg 93%
    20:00 +2°C° 0.1 mm 2 mps 622 mmHg 93%
    21:00 +2°C° 0.1 mm 2 mps 622 mmHg 93%
    22:00 +2°C° 0.1 mm 2 mps 622 mmHg 93%
    23:00 +2°C° 0.3 mm 2 mps 622 mmHg 93%

    Day after tomorrow, 21 November, Wednesday

    Time Temperature Precipitation Wind Pressure Humidity
    00:00 +2°C° 0.3 mm 2 mps 622 mmHg 93%
    01:00 +2°C° 0.3 mm 2 mps 621 mmHg 94%
    02:00 +3°C° 0.3 mm 1 mps 621 mmHg 93%
    03:00 +3°C° 0.3 mm 1 mps 621 mmHg 93%
    04:00 +3°C° 0.3 mm 1 mps 620 mmHg 93%
    05:00 +3°C° 0.6 mm 1 mps 620 mmHg 93%
    06:00 +3°C° 0.6 mm 1 mps 620 mmHg 92%
    07:00 +3°C° 0.6 mm 1 mps 620 mmHg 92%
    08:00 +3°C° 0.6 mm 1 mps 620 mmHg 90%
    09:00 +3°C° 0.6 mm 1 mps 621 mmHg 88%
    10:00 +4°C° 0.6 mm 1 mps 621 mmHg 86%
    11:00 +4°C° 0.2 mm 1 mps 621 mmHg 84%
    12:00 +4°C° 0.2 mm 1 mps 621 mmHg 82%
    13:00 +4°C° 0.2 mm 1 mps 621 mmHg 81%
    14:00 +3°C° 0.2 mm 2 mps 621 mmHg 83%
    15:00 +2°C° 0.2 mm 2 mps 621 mmHg 85%
    16:00 +2°C° 0.2 mm 2 mps 621 mmHg 87%
    17:00 +1°C° 0.2 mm 2 mps 621 mmHg 88%
    18:00 +1°C° 0.2 mm 2 mps 622 mmHg 89%
    19:00 +1°C° 0.2 mm 2 mps 622 mmHg 89%
    20:00 -1°C° 0.1 mm 2 mps 622 mmHg 89%
    21:00 -1°C° 0.1 mm 2 mps 622 mmHg 89%
    22:00 -1°C° 0.1 mm 2 mps 623 mmHg 89%
    23:00 -2°C° 0.1 mm 2 mps 623 mmHg 89%

    22 November, Thursday

    Time Temperature Precipitation Wind Pressure Humidity
    00:00 -2°C° 0.1 mm 2 mps 623 mmHg 89%
    01:00 -2°C° 0.1 mm 2 mps 623 mmHg 89%
    02:00 -3°C° 0.1 mm 2 mps 623 mmHg 88%
    03:00 -1°C° 0.1 mm 1 mps 623 mmHg 88%
    04:00 -1°C° 0.1 mm 1 mps 623 mmHg 88%
    05:00 -1°C° 0 mm 1 mps 623 mmHg 87%
    06:00 -1°C° 0 mm 1 mps 624 mmHg 87%
    07:00 -1°C° 0 mm 1 mps 624 mmHg 86%
    08:00 0°C° 0 mm 1 mps 624 mmHg 81%
    09:00 +1°C° 0 mm 1 mps 625 mmHg 75%
    10:00 +2°C° 0 mm 1 mps 626 mmHg 70%
    11:00 +3°C° 0 mm 1 mps 626 mmHg 68%
    12:00 +4°C° 0 mm 1 mps 626 mmHg 66%
    13:00 +4°C° 0 mm 1 mps 626 mmHg 65%
    14:00 +4°C° 0 mm 1 mps 626 mmHg 69%
    15:00 +3°C° 0 mm 1 mps 626 mmHg 72%
    16:00 +2°C° 0 mm 1 mps 626 mmHg 76%
    17:00 +1°C° 0 mm 1 mps 626 mmHg 79%
    18:00 +1°C° 0 mm 1 mps 626 mmHg 81%
    19:00 0°C° 0 mm 1 mps 626 mmHg 84%
    20:00 0°C° 0 mm 1 mps 626 mmHg 84%
    21:00 -1°C° 0 mm 1 mps 626 mmHg 85%
    22:00 -1°C° 0 mm 1 mps 626 mmHg 86%
    23:00 -1°C° 0 mm 1 mps 626 mmHg 86%

    23 November, Friday

    Time Temperature Precipitation Wind Pressure Humidity
    00:00 -1°C° 0 mm 1 mps 626 mmHg 87%
    01:00 -2°C° 0 mm 1 mps 626 mmHg 87%
    02:00 -2°C° 0 mm 1 mps 626 mmHg 87%
    03:00 -2°C° 0 mm 1 mps 626 mmHg 88%
    04:00 -2°C° 0 mm 1 mps 627 mmHg 88%
    05:00 -2°C° 0 mm 1 mps 627 mmHg 88%
    06:00 -3°C° 0 mm 1 mps 627 mmHg 88%
    07:00 -3°C° 0 mm 1 mps 627 mmHg 88%
    08:00 -1°C° 0 mm 1 mps 628 mmHg 81%
    09:00 +1°C° 0 mm 1 mps 629 mmHg 74%
    10:00 +2°C° 0 mm 1 mps 630 mmHg 67%
    11:00 +3°C° 0 mm 1 mps 630 mmHg 65%
    12:00 +4°C° 0 mm 1 mps 630 mmHg 62%
    13:00 +3°C° 0 mm 2 mps 630 mmHg 60%
    14:00 +3°C° 0 mm 1 mps 630 mmHg 65%
    15:00 +2°C° 0 mm 1 mps 630 mmHg 69%
    16:00 +1°C° 0 mm 1 mps 629 mmHg 73%
    17:00 0°C° 0 mm 1 mps 629 mmHg 77%
    18:00 0°C° 0 mm 1 mps 629 mmHg 80%
    19:00 -1°C° 0 mm 1 mps 629 mmHg 84%
    20:00 -2°C° 0 mm 1 mps 629 mmHg 85%
    21:00 -2°C° 0 mm 1 mps 629 mmHg 86%
    22:00 -2°C° 0 mm 1 mps 629 mmHg 87%
    23:00 -3°C° 0 mm 1 mps 629 mmHg 87%

    24 November, Saturday

    Time Temperature Precipitation Wind Pressure Humidity
    00:00 -3°C° 0 mm 1 mps 629 mmHg 87%
    01:00 -3°C° 0 mm 1 mps 629 mmHg 88%
    02:00 -3°C° 0 mm 1 mps 628 mmHg 87%
    03:00 -3°C° 0 mm 1 mps 628 mmHg 87%
    04:00 -4°C° 0 mm 1 mps 628 mmHg 87%
    05:00 -4°C° 0 mm 1 mps 628 mmHg 86%
    06:00 -5°C° 0 mm 0 mps 628 mmHg 86%
    07:00 -4°C° 0 mm 0 mps 628 mmHg 85%
    08:00 -2°C° 0 mm 0 mps 629 mmHg 77%
    09:00 0°C° 0 mm 0 mps 630 mmHg 69%
    10:00 +2°C° 0 mm 0 mps 630 mmHg 60%
    11:00 +3°C° 0 mm 1 mps 630 mmHg 58%
    12:00 +4°C° 0 mm 1 mps 630 mmHg 55%
    13:00 +5°C° 0 mm 1 mps 629 mmHg 53%
    14:00 +4°C° 0 mm 1 mps 629 mmHg 58%
    15:00 +2°C° 0 mm 1 mps 628 mmHg 63%
    16:00 0°C° 0 mm 0 mps 628 mmHg 68%
    17:00 +1°C° 0 mm 1 mps 628 mmHg 70%
    18:00 0°C° 0 mm 1 mps 628 mmHg 72%
    19:00 -1°C° 0 mm 1 mps 627 mmHg 75%
    20:00 -1°C° 0 mm 1 mps 627 mmHg 75%
    21:00 -1°C° 0 mm 1 mps 627 mmHg 76%
    22:00 -1°C° 0 mm 1 mps 627 mmHg 77%
    23:00 -1°C° 0 mm 1 mps 627 mmHg 77%
    Show more